Location: Unspecified
(0.0000°N, 0.0000°E)
Time: 11:32:45
(UTC+00:00)

ISS - Pass Details

Date: 12 April 2024
Orbit: 412 x 418 km, 51.6° (Epoch: 20 April)

Event Time Altitude Azimuth Distance (km) Brightness Sun altitude
Exits shadow 05:00:31 - 196° (SSW) 1,576 -1.1 -14.9°
Reaches altitude 10° 05:00:45 10° 195° (SSW) 1,482 -1.2 -14.8°
Maximum altitude 05:03:52 37° 126° (SE) 659 -2.4 -14.1°
Drops below altitude 10° 05:06:57 10° 56° (ENE) 1,472 0.1 -13.3°
Sets 05:09:07 0° 48° (NE) 2,329 1.1 -12.8°
